Theta_e
313 313 314 314 314 315 314 314 313 315 317 317 318 317 315 315 315 315 311 309 305 302 301 299 297 298 296 296 295 295 294 297 296 293 293 292 292 290 291 291 291 290 290
311 312 312 313 313 313 312 310 311 309 308 308 308 308 306 305 305 305 302 302 300 296 295 293 291 292 290 291 291 290 290 291 291 289 289 289 290 290 289 289 289 289 289
309 310 310 310 309 306 304 303 302 302 300 299 299 298 298 297 297 295 294 293 292 291 291 290 289 289 288 289 289 288 289 289 290 288 288 289 289 289 286 287 287 287 289
307 307 307 307 307 305 302 300 299 298 296 294 294 293 293 292 291 290 290 289 288 288 289 289 289 288 288 289 289 288 289 288 288 288 287 286 286 286 285 284 283 285 285
304 304 303 301 301 300 299 298 296 294 293 292 291 290 290 290 288 288 287 288 287 287 288 288 289 288 288 290 290 289 288 287 287 286 285 285 284 283 282 283 282 283 284
302 301 298 298 295 294 292 292 291 291 290 290 289 288 288 286 290 290 288 287 287 286 286 287 287 286 287 288 288 288 288 286 284 285 284 282 282 282 282 282 282 280 277
298 295 293 292 290 291 290 290 289 289 289 288 288 289 288 288 290 289 289 288 287 287 287 286 285 285 286 286 286 286 286 286 286 285 282 282 281 282 282 279 278 279 278
294 291 290 290 288 287 288 287 288 288 287 287 287 288 288 287 289 288 288 287 287 286 286 285 285 285 286 285 285 284 284 282 282 283 283 282 282 281 280 279 279 277 279
290 289 288 288 286 285 285 286 286 286 286 286 286 286 286 286 288 287 286 285 284 284 284 284 285 284 286 286 284 281 282 280 281 282 282 281 280 280 279 278 273 272 272
289 288 287 286 285 284 285 284 285 285 285 284 284 285 284 285 287 286 286 285 283 282 283 283 283 284 284 285 282 280 276 278 278 276 278 279 278 278 277 277 275 269 271
286 285 284 284 284 284 284 283 284 284 283 284 283 283 283 284 285 286 285 285 284 282 282 282 282 283 283 282 281 280 278 278 275 274 275 276 276 276 276 275 275 273 269
283 282 282 282 282 283 283 282 283 283 283 282 282 282 283 282 284 285 285 284 285 283 282 282 281 283 282 280 279 279 277 276 274 273 273 273 274 274 274 273 273 273 274
281 281 281 281 282 282 282 281 281 282 282 281 281 281 281 281 282 285 284 283 283 282 282 282 282 282 281 278 277 276 272 273 272 271 271 272 272 272 272 272 272 273 273
281 280 279 280 280 280 281 282 282 281 281 282 281 281 282 280 281 282 282 282 280 280 280 280 280 280 278 276 273 272 272 272 271 271 271 271 272 271 269 270 267 268 267
281 279 279 280 279 280 280 281 281 282 283 282 282 282 282 280 281 282 282 281 279 280 277 276 275 273 271 271 271 270 270 268 268 269 269 270 269 269 268 268 267 265 264
280 279 280 279 279 280 280 279 281 282 283 282 283 283 282 283 284 284 283 283 282 281 273 273 273 272 272 271 270 269 269 267 269 268 268 268 267 267 266 265 266 263 262
281 280 280 278 279 279 278 278 278 280 282 282 282 283 283 283 282 282 283 282 281 280 272 273 273 273 273 273 271 271 268 269 266 267 267 266 266 265 262 263 264 263 262
277 276 279 279 279 279 278 278 278 278 279 280 282 282 283 283 283 282 283 283 279 279 275 272 272 273 273 272 271 270 269 265 263 265 265 264 263 264 263 262 262 259 259
276 277 277 278 279 278 278 278 278 278 278 278 280 281 280 283 283 283 283 281 278 276 277 274 272 272 272 271 270 269 268 266 265 264 264 263 262 262 262 261 260 259 258
275 272 272 277 277 277 276 276 276 276 276 276 277 279 279 279 279 279 280 280 279 277 276 273 271 271 271 270 269 267 265 264 263 262 263 263 262 262 261 260 258 258 257
274 275 271 273 275 275 275 275 275 275 275 276 276 278 280 278 277 278 279 279 279 278 275 274 271 270 269 269 267 265 264 264 263 262 262 262 262 261 260 261 257 256 255
272 272 273 273 274 275 275 275 275 275 275 275 275 277 280 278 278 277 278 279 280 279 277 275 272 271 269 268 266 265 263 263 263 263 262 262 261 260 259 259 256 257 256
271 271 271 272 273 273 273 273 273 273 274 274 275 275 276 276 276 277 277 277 278 278 276 274 272 270 269 267 267 266 264 263 264 263 261 261 259 260 259 259 257 255 255
268 269 269 270 270 270 271 271 271 271 272 272 272 273 274 274 275 274 275 276 276 276 273 272 271 270 268 267 266 265 265 265 264 263 262 261 260 260 259 258 258 256 256
265 266 267 267 268 268 269 269 269 270 270 270 271 271 272 272 272 273 273 273 273 274 272 270 269 269 268 266 265 264 263 265 263 262 261 260 260 259 258 257 257 256 256
263 264 265 265 266 266 266 266 267 267 267 268 268 269 269 270 270 270 271 271 270 271 269 269 267 266 266 266 264 263 263 263 261 259 259 258 257 257 257 255 255 255 256
Wind_Speed
7 5 6 5 4 3 3 3 3 3 2 5 2 2 3 2 1 2 3 4 6 5 6 7 8 7 5 5 5 3 2 2 3 0 2 3 3 4 4 5 5 5 5
6 6 5 5 5 4 4 4 2 2 2 2 3 3 3 3 3 5 6 5 7 8 7 8 6 5 6 3 3 4 3 2 2 3 2 2 2 4 5 5 4 5 6
6 6 5 5 6 5 5 4 4 4 5 5 6 6 5 5 7 7 7 8 8 7 6 7 6 6 5 3 4 3 3 2 3 2 2 1 2 3 4 4 4 4 4
6 6 6 5 6 6 5 5 5 5 5 5 5 5 5 6 6 6 8 8 8 6 5 5 5 4 5 4 4 4 3 3 2 1 1 2 1 3 2 3 5 3 7
7 6 6 5 5 5 5 5 5 5 6 5 5 5 4 5 4 7 6 7 7 7 6 5 6 6 8 6 2 3 2 2 1 1 1 0 1 2 3 3 5 6 7
6 6 6 5 5 5 5 5 5 5 4 5 5 4 4 3 8 9 7 7 6 7 6 6 6 6 8 10 10 10 6 2 1 1 1 1 1 2 2 4 5 6 4
6 6 6 6 6 5 5 5 4 4 4 5 4 4 4 4 9 9 8 5 5 6 6 5 4 3 4 5 7 8 7 7 7 1 1 2 2 4 4 4 3 4 4
5 5 5 5 6 5 5 6 5 4 4 5 4 4 4 4 9 9 9 6 5 5 5 5 4 4 3 3 4 4 4 5 4 3 3 4 4 4 3 3 4 4 6
7 6 5 5 5 5 5 6 4 4 3 3 3 4 4 4 9 10 6 5 6 6 4 4 4 4 5 5 4 4 4 3 4 4 7 5 5 6 6 3 2 3 2
6 5 5 5 6 6 5 4 2 2 4 4 5 3 4 4 8 7 5 4 5 4 4 4 3 4 4 6 3 4 4 3 1 1 2 2 4 4 6 4 2 1 2
6 6 6 5 5 5 4 2 3 4 4 3 4 3 3 3 3 6 5 2 3 4 4 3 3 6 6 5 4 1 2 5 2 0 1 1 1 1 1 2 2 1 1
6 6 5 4 3 3 5 3 3 4 4 4 4 3 2 1 3 6 7 5 6 4 4 4 4 10 8 6 4 7 7 4 1 2 0 0 1 1 3 3 2 3 4
6 6 5 5 3 3 4 4 4 4 3 4 3 3 4 3 2 7 8 6 6 3 2 7 11 12 10 6 7 6 3 2 2 2 1 1 1 1 3 3 3 3 5
7 5 4 4 4 3 2 3 4 4 4 4 4 5 4 5 5 5 4 4 4 3 6 5 8 7 7 5 5 3 1 1 2 1 1 0 1 1 1 1 2 3 2
5 4 4 2 2 3 3 2 3 3 5 4 5 5 5 6 7 10 9 6 5 7 6 3 4 5 5 5 5 4 3 4 3 2 2 3 2 1 2 1 2 2 2
4 3 2 2 2 3 3 3 9 10 8 10 9 6 2 6 6 14 15 13 12 12 2 6 7 7 7 7 7 6 5 4 4 3 3 3 2 2 0 2 2 2 3
2 3 2 2 3 3 3 3 4 5 12 13 14 15 15 10 11 11 14 15 14 14 6 7 7 7 7 7 7 7 6 6 4 4 4 3 3 2 3 1 2 2 3
1 1 2 2 3 3 3 3 3 3 4 4 12 14 15 15 15 13 16 15 8 12 8 7 7 7 7 7 7 6 5 6 5 5 5 3 3 3 3 3 2 2 3
2 2 3 3 3 3 3 3 4 4 5 6 4 7 8 18 16 16 19 10 10 10 9 8 7 6 6 6 7 6 7 7 7 6 5 5 5 4 4 2 2 3 3
2 4 3 3 2 3 3 4 5 5 6 6 6 8 4 6 8 9 10 11 10 10 9 9 8 8 8 7 7 7 7 6 6 6 6 6 5 5 4 4 3 3 3
2 2 1 3 3 3 4 5 5 5 6 6 7 7 13 9 9 10 10 11 12 11 11 10 9 9 8 8 8 8 8 7 8 8 7 6 6 6 5 4 3 3 3
3 3 3 3 3 5 5 6 6 7 7 8 7 8 18 9 9 10 11 11 10 10 10 10 9 9 10 10 10 9 9 9 8 8 8 7 7 6 4 4 3 3 3
3 4 4 4 4 6 6 6 6 7 7 8 8 7 7 8 9 10 10 10 10 8 9 8 9 9 9 10 10 11 11 11 10 9 9 8 7 7 7 6 5 4 3
3 4 4 4 4 5 6 6 6 7 8 8 8 8 8 8 9 10 10 9 8 10 7 9 10 12 10 10 9 9 8 7 7 9 11 9 8 9 7 6 5 4 3
4 4 5 5 5 5 6 6 6 7 7 7 7 8 8 8 8 8 8 8 10 10 9 9 8 12 15 15 13 14 13 14 10 9 7 8 9 10 8 6 6 5 7
4 5 5 5 5 5 6 6 7 7 7 7 7 7 8 8 8 8 8 8 9 9 9 8 9 14 14 13 15 15 15 15 13 13 8 8 8 7 7 7 9 6 7
Wind_Direction
154 153 162 163 171 183 217 239 248 254 268 267 323 301 281 280 340 154 109 100 99 89 67 80 63 65 64 77 80 73 78 99 128 140 76 66 64 45 17 16 6 354 348
143 151 148 143 139 123 103 75 74 135 50 34 44 77 62 48 46 79 81 76 94 92 92 96 102 100 90 97 105 118 113 55 130 170 75 66 38 41 358 350 356 336 327
139 151 140 129 117 103 93 87 76 87 74 58 59 64 63 56 63 65 83 87 92 97 109 116 125 130 132 130 105 97 89 75 62 107 143 99 66 57 339 334 335 303 292
157 152 138 131 132 133 115 97 87 79 83 77 74 76 80 87 93 96 101 102 98 101 111 112 109 97 102 108 93 115 144 137 114 78 84 68 103 83 288 337 329 347 310
154 155 137 120 110 105 95 87 76 71 87 86 91 85 83 94 111 117 119 121 124 111 86 83 77 76 79 58 101 106 99 79 74 92 137 138 55 1 2 347 325 312 308
159 145 126 125 105 106 113 112 109 109 109 98 91 98 96 99 138 133 122 117 120 117 111 94 94 96 87 84 79 63 48 97 97 36 47 104 76 342 22 333 315 339 339
147 140 145 136 133 129 121 111 114 118 128 106 102 100 102 106 132 128 120 109 112 116 122 124 113 88 99 111 103 94 80 68 47 336 166 59 346 31 340 324 326 307 293
145 148 144 143 133 135 140 134 136 138 132 124 120 122 118 120 137 129 117 111 107 103 111 122 131 140 133 137 146 121 113 62 32 19 34 38 45 20 3 315 304 305 282
159 157 155 145 139 141 144 142 127 134 118 101 102 99 114 115 140 138 120 110 108 99 99 111 129 152 155 191 149 165 128 114 97 75 82 75 80 50 25 326 360 335 308
157 142 133 136 145 148 142 132 97 98 114 118 113 94 106 128 156 148 127 111 123 134 133 135 165 131 145 194 170 156 149 142 127 46 90 86 55 44 39 21 346 350 302
128 123 116 116 124 120 115 93 131 124 123 117 114 109 109 114 168 177 177 154 165 167 162 166 153 183 183 185 156 113 123 125 114 54 228 70 61 37 58 12 7 308 280
112 104 103 102 94 103 127 127 137 138 143 148 147 156 166 121 186 193 196 215 205 179 176 167 160 179 169 157 120 130 133 129 118 210 196 140 340 10 346 338 322 295 282
106 105 108 100 107 127 148 160 157 170 175 179 177 190 184 181 194 204 192 193 193 201 154 176 176 173 171 158 141 140 147 132 198 210 188 193 108 359 308 312 314 302 277
117 117 115 134 145 158 186 181 183 185 194 195 197 208 193 184 197 196 185 181 186 188 173 173 172 162 159 136 135 172 191 157 234 197 160 214 259 263 287 330 301 325 293
105 110 116 124 190 190 231 210 215 214 215 214 215 208 200 210 211 197 189 189 184 194 154 146 174 179 186 185 193 187 170 171 207 175 196 210 201 250 269 320 293 310 286
102 96 140 176 193 225 228 247 243 248 239 249 257 239 245 244 234 206 210 214 208 193 179 197 200 205 209 200 197 190 187 192 200 176 205 210 183 187 251 299 284 288 282
90 118 152 216 210 218 225 244 262 214 241 248 246 245 243 245 231 229 218 215 210 202 212 214 217 215 215 209 197 191 184 195 149 191 208 206 177 193 169 202 276 278 281
149 144 214 204 215 220 217 231 237 252 253 235 230 237 242 242 239 240 228 221 217 220 218 227 223 222 215 210 200 192 185 156 184 193 200 192 188 196 186 189 216 239 276
200 211 201 227 225 238 249 239 240 247 248 256 255 226 244 242 246 238 234 222 217 217 223 222 221 226 223 211 199 190 188 186 181 183 198 185 194 199 198 187 197 224 245
205 222 261 263 246 232 235 241 242 241 244 247 246 249 232 220 229 225 224 227 222 220 217 209 211 218 217 211 199 190 188 185 181 187 195 190 191 201 201 180 189 222 222
334 326 321 286 267 267 264 261 259 255 255 255 256 252 242 241 240 238 231 228 228 220 220 214 204 208 205 203 200 198 196 196 192 193 191 190 186 195 201 200 180 194 211
332 315 293 276 274 268 264 266 265 267 266 265 267 263 261 256 248 244 248 247 242 235 223 218 210 204 199 197 198 199 200 202 194 190 191 187 189 187 191 192 185 202 204
301 294 287 280 274 280 274 267 265 264 266 267 268 267 259 254 253 257 252 249 250 243 224 216 217 214 204 200 197 199 199 200 198 185 188 183 188 187 188 187 198 187 199
302 300 295 291 291 293 289 286 283 279 276 275 274 274 274 269 267 259 262 273 261 254 227 224 228 225 215 203 199 200 203 194 184 189 184 185 189 183 189 177 189 189 196
325 321 313 305 298 291 290 286 285 286 279 278 280 281 279 276 278 279 274 269 273 265 238 230 230 233 225 212 202 193 189 188 179 179 180 184 192 188 184 187 183 190 195
327 313 305 302 300 303 303 302 300 298 294 293 290 288 287 286 283 284 283 280 278 271 254 248 235 232 229 224 212 193 187 189 186 185 178 182 186 197 191 192 189 192 200